STARLINK-11226 [DTC] (60907 NORAD) Tracking and Keplerian Element Data

This shows tracking and keplerian element data for the satellite.

Feedback or suggestion? Click here.




ElementValue
Catalog60907
NameSTARLINK-11226 [DTC]
Epoch Orbit795
Epoch Day286.82833198
Epoch Year2024
RAAN140.221
Inclination53.1589
Eccentricity8.28E-05
Argument of Perigee74.8994
Mean Anonmoly285.2119
Mean Motion15.76728321
Decay Rate1.707E-05
L11 60907U 24154E 24286.82833198 .00001707 00000+0 14423-4 0 9994
L22 60907 53.1589 140.2210 0000828 74.8994 285.2119 15.76728321 7955



Live tracking and technical data element details for STARLINK-11226 [DTC] (NORAD 60907). STARLINK-11226 [DTC] can be tracked NOW for your location showing map with azimuth and elevation plus other details from your city location.







IsCatalogInMostPopularTable: catalog: 60907, numindb: 8
Update: records affected: 1



GetName: 60907 STARLINK-11226 [DTC]

Hit Count: updated at: Wed, 04 Dec 2024 17:43:27 GMT